STARLINK-1309 (45414 NORAD) Tracking and Keplerian Element Data

This shows tracking and keplerian element data for the satellite.

Feedback or suggestion? Click here.




ElementValue
Catalog45414
NameSTARLINK-1309
Epoch Orbit180
Epoch Day143.83334491
Epoch Year2020
RAAN294.505
Inclination52.9982
Eccentricity0.0001429
Argument of Perigee40.3217
Mean Anonmoly251.3594
Mean Motion15.62743079
Decay Rate0.00048561
L11 45414U 20019BG 20143.83334491 .00048561 00000-0 53320-3 0 9995
L22 45414 52.9982 294.5050 0001429 40.3217 251.3594 15.62743079 1805

Live tracking and technical data element details for STARLINK-1309 (NORAD 45414). STARLINK-1309 can be tracked NOW for your location showing map with azimuth and elevation plus other details from your city location.

Track the satellite on the map from your city or location and see movement details for azimuth, elevation, latitude, longitude, range, height, and movement on the map or in text.







IsCatalogInMostPopularTable: catalog: 45414, numindb: 23
Update: records affected: 1



GetName: 45414 STARLINK-1309

Hit Count: updated at: Mon, 25 May 2020 06:38:42 GMT